Terminal Aerodrome Forecast
Issued by NWS Nashville, TN

Home | Current Version | Previous Version | Text Only | Print | Product List | Glossary On
Versions: 1 2 3 4 5 6 7 8 9 10 11 12 13 14 15 16 17 18 19 20 21 22 23 24 25 26 27 28 29 30 31 32 33 34 35 36 37 38 39 40 41 42 43 44 45 46 47 48 49 50
000
FTUS44 KOHX 101713 AAB
TAFCSV
TAF AMD
KCSV 101713Z 1017/1112 32010KT 5SM -RA BR BKN005 OVC013
      TEMPO 1017/1018 32011G18KT 2SM -RASN OVC005
     FM101800 33010KT 5SM -SN OVC008
      TEMPO 1018/1020 2SM -SN OVC003
     FM110000 35008KT P6SM -SN OVC035
     FM110300 35006KT P6SM OVC100
     FM110600 33003KT P6SM OVC150=

USA.gov is the U.S. government's official web portal to all federal, state and local government web resources and services.